Location: Holmbach
(49.5093°N, 8.8411°E)
Time: 21:10:46
(UTC+00:00)

Landsat 5 - Pass Details

Date: 17 June 2025
Orbit: 509 x 611 km, 98.1° (Epoch: 16 July)

Event Time Altitude Azimuth Distance (km) Brightness Sun altitude
Rises 22:58:17 0° 11° (N) 2,872 8.4 -16.8°
Reaches altitude 10° 23:00:30 10° 8° (N) 1,954 7.3 -16.9°
Maximum altitude 23:04:42 61° 288° (WNW) 676 3.8 -16.9°
Enters shadow 23:06:53 26° 217° (SW) 1,167 4.5 -17.0°
